sat.trackr.live / text

‹ back to catalog

STARLINK-31971

NORAD 59934 · 2024-106N

PAYLOAD ACTIVE UNKNOWN

§ Identity

Operator
Country
US
Launch date
2024-06-01
Launch site
AFETR
Launch vehicle
Mass (kg)
RCS (m²)

Purposes: comms

External: N2YO · Heavens-Above · Gunter

§ Orbital elements

Epoch: 2026-05-25T00:46:34.119840Z

Period
94.27 min
Inclination
43.0017°
Eccentricity
0.0001457
Mean motion
15.27574883 rev/d
Perigee alt
482.1 km
Apogee alt
484.1 km
Semi-major
6,861.2 km
B*
8.2741e-6
RAAN
258.1850°
Arg perigee
272.8536°
Mean anomaly
87.2149°
Rev number
11,211

§ Raw data

STARLINK-319711 59934U 24106N   26145.03233935 -.00000035  00000+0  82741-5 0  99942 59934  43.0017 258.1850 0001457 272.8536  87.2149 15.27574883112113

JSON: /api/v1/satellites/59934 · /tle

For live sub-satellite position, see the globe view (requires WebGL).

§ Visibility from observer

Set your observer location to see the next 7 days of passes ≥ 10°. The values pass through the URL so the page stays shareable.

No JS? Fill the form by hand. The geolocation button needs JavaScript.